This demonstration page uses our WeatherBlox Daily Observations layout. Learn more.

Left ArrowRight Arrow

Hourly Observations for September 12, 2017

Temp ( °F °C ) Dew Point ( °F °C ) Humidity (%) Winds ( mph kmh ) Pressure ( in mb ) Visibility ( mi km ) Precip ( " mm )
12:15 am 00:15 Clear 63 17 55 13 77 77 N 3 6 30.15 1021 10 16 0.00 0.00
12:35 am 00:35 Clear 59 15 57 14 94 94 Calm 30.15 1021 10 16 0.00 0.00
12:55 am 00:55 Clear 59 15 57 14 94 94 Calm 30.15 1021 10 16 0.00 0.00
1:15 am 01:15 Clear 59 15 59 15 100 100 Calm 30.15 1021 10 16 0.00 0.00
1:35 am 01:35 Clear 61 16 59 15 94 94 Calm 30.15 1021 10 16 0.00 0.00
1:55 am 01:55 Clear 59 15 57 14 94 94 N 3 6 30.12 1020 10 16 0.00 0.00
2:15 am 02:15 Clear 61 16 57 14 88 88 Calm 30.12 1020 10 16 0.00 0.00
2:35 am 02:35 Clear 61 16 57 14 88 88 NNE 6 9 30.12 1020 10 16 0.00 0.00
2:55 am 02:55 Clear 61 16 57 14 88 88 Calm 30.09 1019 10 16 0.00 0.00
3:15 am 03:15 Clear 61 16 57 14 88 88 Calm 30.12 1020 10 16 0.00 0.00
3:35 am 03:35 Clear 59 15 57 14 94 94 Calm 30.09 1019 10 16 0.00 0.00
3:55 am 03:55 Clear 59 15 59 15 100 100 Calm 30.09 1019 10 16 0.00 0.00
4:15 am 04:15 Clear 59 15 59 15 100 100 Calm 30.09 1019 10 16 0.00 0.00
4:35 am 04:35 Clear 59 15 59 15 100 100 Calm 30.09 1019 10 16 0.00 0.00
4:55 am 04:55 Clear 59 15 59 15 100 100 Calm 30.09 1019 10 16 0.00 0.00
5:15 am 05:15 Clear 59 15 59 15 100 100 N 3 6 30.09 1019 10 16 0.00 0.00
5:35 am 05:35 Clear 59 15 57 14 94 94 Calm 30.09 1019 10 16 0.00 0.00
5:55 am 05:55 Clear 59 15 57 14 94 94 NE 6 9 30.09 1019 10 16 0.00 0.00
6:15 am 06:15 Clear 61 16 57 14 88 88 Calm 30.09 1019 10 16 0.00 0.00
6:35 am 06:35 Clear 59 15 57 14 94 94 Calm 30.09 1019 10 16 0.00 0.00
6:55 am 06:55 Sunny 59 15 59 15 100 100 Calm 30.09 1019 10 16 0.00 0.00
7:15 am 07:15 Sunny 59 15 59 15 100 100 Calm 30.09 1019 10 16 0.00 0.00
7:35 am 07:35 Partly Cloudy 59 15 59 15 100 100 Calm 30.09 1019 10 16 0.00 0.00
7:55 am 07:55 Partly Cloudy 61 16 57 14 88 88 NNE 5 7 30.09 1019 10 16 0.00 0.00
8:15 am 08:15 Partly Cloudy 61 16 55 13 83 83 NNE 5 7 30.09 1019 10 16 0.00 0.00
8:35 am 08:35 Partly Cloudy 61 16 57 14 88 88 N 3 6 30.09 1019 10 16 0.00 0.00
8:55 am 08:55 Partly Cloudy 61 16 57 14 88 88 N 3 6 30.09 1019 10 16 0.00 0.00
9:15 am 09:15 Sunny 63 17 57 14 83 83 NE 3 6 30.09 1019 10 16 0.00 0.00
9:35 am 09:35 Sunny 63 17 57 14 83 83 NNE 3 6 30.06 1018 10 16 0.00 0.00
9:55 am 09:55 Sunny 64 18 57 14 78 78 NNE 5 7 30.06 1018 10 16 0.00 0.00
10:15 am 10:15 Sunny 64 18 59 15 83 83 Calm 30.06 1018 10 16 0.00 0.00
10:35 am 10:35 Sunny 64 18 59 15 83 83 NE 3 6 30.09 1019 10 16 0.00 0.00
10:55 am 10:55 Sunny 68 20 59 15 73 73 Calm 30.09 1019 10 16 0.00 0.00
11:15 am 11:15 Sunny 68 20 59 15 73 73 Calm 30.09 1019 10 16 0.00 0.00
11:35 am 11:35 Sunny 70 21 57 14 64 64 Calm 30.09 1019 10 16 0.00 0.00
11:55 am 11:55 Sunny 72 22 57 14 61 61 SSE 6 9 30.06 1018 10 16 0.00 0.00
12:15 pm 12:15 Sunny 72 22 57 14 61 61 E 3 6 30.06 1018 10 16 0.00 0.00
12:35 pm 12:35 Sunny 72 22 57 14 61 61 SE 6 9 30.06 1018 10 16 0.00 0.00
12:55 pm 12:55 Sunny 72 22 59 15 65 65 NNE 5 7 30.06 1018 10 16 0.00 0.00
1:15 pm 13:15 Sunny 73 23 59 15 61 61 Calm 30.06 1018 10 16 0.00 0.00
1:35 pm 13:35 Sunny 73 23 59 15 61 61 E 3 6 30.03 1017 10 16 0.00 0.00
1:55 pm 13:55 Sunny 73 23 55 13 53 53 Calm 30.03 1017 10 16 0.00 0.00
2:15 pm 14:15 Sunny 73 23 55 13 53 53 Calm 30.03 1017 10 16 0.00 0.00
2:35 pm 14:35 Sunny 75 24 55 13 50 50 E 3 6 30.00 1016 10 16 0.00 0.00
2:55 pm 14:55 Sunny 77 25 55 13 47 47 ENE 5 7 30.00 1016 10 16 0.00 0.00
3:15 pm 15:15 Sunny 77 25 57 14 51 51 Calm 30.00 1016 10 16 0.00 0.00
3:35 pm 15:35 Sunny 77 25 57 14 51 51 Calm 30.00 1016 10 16 0.00 0.00
3:55 pm 15:55 Sunny 77 25 57 14 51 51 Calm 29.97 1015 10 16 0.00 0.00
4:15 pm 16:15 Sunny 77 25 57 14 51 51 SE 5 7 29.97 1015 10 16 0.00 0.00
4:35 pm 16:35 Sunny 77 25 59 15 54 54 E 5 7 29.97 1015 10 16 0.00 0.00
4:55 pm 16:55 Sunny 77 25 59 15 54 54 ENE 6 9 29.97 1015 10 16 0.00 0.00
5:15 pm 17:15 Sunny 75 24 59 15 57 57 E 5 7 29.97 1015 10 16 0.00 0.00
5:35 pm 17:35 Sunny 75 24 59 15 57 57 ESE 5 7 29.97 1015 10 16 0.00 0.00
5:55 pm 17:55 Sunny 77 25 57 14 51 51 E 3 6 29.97 1015 10 16 0.00 0.00
6:15 pm 18:15 Sunny 75 24 57 14 54 54 E 3 6 29.97 1015 10 16 0.00 0.00
6:35 pm 18:35 Sunny 73 23 59 15 61 61 E 3 6 29.94 1014 10 16 0.00 0.00
6:55 pm 18:55 Sunny 73 23 59 15 61 61 E 3 6 29.94 1014 10 16 0.00 0.00
7:15 pm 19:15 Sunny 73 23 59 15 61 61 E 5 7 29.94 1014 10 16 0.00 0.00
7:35 pm 19:35 Clear 72 22 59 15 65 65 E 5 7 29.94 1014 10 16 0.00 0.00
7:55 pm 19:55 Clear 72 22 59 15 65 65 E 3 6 29.97 1015 10 16 0.00 0.00
8:15 pm 20:15 Partly Cloudy 72 22 59 15 65 65 E 5 7 29.97 1015 10 16 0.00 0.00
8:35 pm 20:35 Mostly Cloudy 70 21 59 15 69 69 E 5 7 29.97 1015 10 16 0.00 0.00
8:55 pm 20:55 Mostly Cloudy 70 21 59 15 69 69 ESE 6 9 29.97 1015 10 16 0.00 0.00
9:15 pm 21:15 Clear 70 21 59 15 69 69 ESE 5 7 29.97 1015 10 16 0.00 0.00
9:35 pm 21:35 Clear 70 21 59 15 69 69 ESE 3 6 29.97 1015 10 16 0.00 0.00
9:55 pm 21:55 Mostly Cloudy 70 21 59 15 69 69 Calm 29.97 1015 10 16 0.00 0.00
10:15 pm 22:15 Mostly Cloudy 68 20 59 15 73 73 Calm 29.97 1015 10 16 0.00 0.00
10:35 pm 22:35 Cloudy 68 20 59 15 73 73 Calm 29.97 1015 10 16 0.00 0.00
10:55 pm 22:55 Cloudy 68 20 59 15 73 73 Calm 29.97 1015 10 16 0.00 0.00
11:15 pm 23:15 Cloudy 68 20 61 16 78 78 Calm 29.97 1015 10 16 0.00 0.00
11:35 pm 23:35 Cloudy 68 20 61 16 78 78 Calm 29.97 1015 10 16 0.00 0.00
11:55 pm 23:55 Cloudy 66 19 63 17 88 88 Calm 29.97 1015 10 16 0.00 0.00

Powered by AerisWeather